Change the Weather History Date:

Friday, July 13, 2012

  Actual Average Record
Temperature  
Mean Temperature 79 °F -  
Max Temperature 89 °F 86 °F 98 °F (2011)
Min Temperature 69 °F 66 °F 60 °F (1999)
Cooling Degree Days 14    
Growing Degree Days 29 (Base 50)    
Moisture  
Dew Point 43 °F    
Average Humidity 51    
Maximum Humidity 100    
Minimum Humidity 10    
Precipitation  
Precipitation 0.00 in - - ()
Sea Level Pressure  
Sea Level Pressure 30.18 in    
Wind  
Wind Speed 1 mph (ESE)    
Max Wind Speed 13 mph    
Max Gust Speed 21 mph    
Visibility 8 miles    
Events Thunderstorm    
Averages and records for this station are not official NWS values.
T = Trace of Precipitation, MM = Missing Value Source: NWS Daily Summary

Daily Weather History Graph

Daily Weather History Graph

Search for Another Location

Airport or City:

Trip Planner

Search our weather history database for the weather conditions in past years. The results will help you decide how hot, cold, wet, or windy it might be!

Date:

Astronomy

Jul. 13, 2012 Rise Set
Actual Time 6:13 AM EDT 8:33 PM EDT
Civil Twilight 5:44 AM EDT 9:02 PM EDT
Nautical Twilight 5:08 AM EDT 9:38 PM EDT
Astronomical Twilight 4:29 AM EDT 10:17 PM EDT
Moon 1:46 AM EDT (7/13) 4:02 PM EDT (7/13)
Length of Visible Light 15h 18m
Length of Day
14h 19m
Waning Crescent, 26% of the Moon is Illuminated
Jul 13
Waning Crescent
Jul 19
New
Jul 26
First Quarter
Aug 1
Full
Aug 9
Last Quarter

Hourly Weather History & Observations

Time (EDT) Temp. Dew Point Humidity Pressure Visibility Wind Dir Wind Speed Gust Speed Precip Events Conditions
12:15 AM 69.8 °F 68.0 °F 94% 30.16 in 10.0 mi Calm Calm - N/A   Partly Cloudy
12:35 AM 69.8 °F 68.0 °F 94% 30.16 in 10.0 mi Calm Calm - N/A   Clear
12:55 AM 69.8 °F 68.0 °F 94% 30.16 in 10.0 mi Calm Calm - N/A   Clear
1:15 AM 69.8 °F 68.0 °F 94% 30.17 in 10.0 mi Calm Calm - N/A   Clear
1:35 AM 69.8 °F 69.8 °F 100% 30.17 in 10.0 mi Calm Calm - N/A   Clear
1:55 AM 69.8 °F 68.0 °F 94% 30.16 in 10.0 mi Calm Calm - N/A   Clear
2:15 AM 69.8 °F 69.8 °F 100% 30.16 in 10.0 mi Calm Calm - N/A   Scattered Clouds
2:35 AM 69.8 °F 68.0 °F 94% 30.16 in 10.0 mi Calm Calm - N/A   Mostly Cloudy
2:55 AM 69.8 °F 68.0 °F 94% 30.16 in 10.0 mi Calm Calm - N/A   Mostly Cloudy
3:15 AM 69.8 °F 68.0 °F 94% 30.16 in 10.0 mi Calm Calm - N/A   Partly Cloudy
3:35 AM 69.8 °F 68.0 °F 94% 30.16 in 10.0 mi Calm Calm - N/A   Mostly Cloudy
3:55 AM 69.8 °F 68.0 °F 94% 30.15 in 2.0 mi Calm Calm - N/A   Overcast
4:15 AM 69.8 °F 69.8 °F 100% 30.15 in 1.0 mi Calm Calm - N/A   Overcast
4:35 AM 69.8 °F 69.8 °F 100% 30.16 in 0.5 mi Calm Calm - N/A   Overcast
4:55 AM 69.8 °F 69.8 °F 100% 30.16 in 0.5 mi Calm Calm - N/A   Overcast
5:15 AM 69.8 °F 69.8 °F 100% 30.16 in 0.5 mi Calm Calm - N/A   Overcast
5:35 AM 69.8 °F 69.8 °F 100% 30.16 in 0.8 mi Calm Calm - N/A   Overcast
5:55 AM 69.8 °F 69.8 °F 100% 30.17 in 0.8 mi Calm Calm - N/A   Overcast
6:15 AM 69.8 °F 69.8 °F 100% 30.17 in 1.8 mi East 3.5 mph - N/A   Overcast
6:35 AM 69.8 °F 69.8 °F 100% 30.19 in 0.8 mi Calm Calm - N/A   Overcast
6:55 AM 69.8 °F 69.8 °F 100% 30.19 in 0.5 mi Calm Calm - N/A   Overcast
7:15 AM 69.8 °F 69.8 °F 100% 30.19 in 0.2 mi Calm Calm - N/A   Overcast
7:35 AM 71.6 °F 69.8 °F 94% 30.19 in 0.8 mi Calm Calm - N/A   Overcast
7:55 AM 71.6 °F 69.8 °F 94% 30.20 in 0.5 mi Calm Calm - N/A   Overcast
8:15 AM 71.6 °F 69.8 °F 94% 30.20 in 2.5 mi Calm Calm - N/A   Overcast
8:35 AM 71.6 °F 69.8 °F 94% 30.21 in 1.0 mi Calm Calm - N/A   Overcast
8:55 AM 71.6 °F 71.6 °F 100% 30.21 in 2.0 mi Calm Calm - N/A   Overcast
9:15 AM 71.6 °F 71.6 °F 100% 30.21 in 4.0 mi Calm Calm - N/A   Overcast
9:35 AM 71.6 °F 71.6 °F 100% 30.22 in 3.0 mi Calm Calm - N/A   Overcast
9:55 AM 73.4 °F 71.6 °F 94% 30.21 in 5.0 mi Calm Calm - N/A   Overcast
10:15 AM 73.4 °F 71.6 °F 94% 30.21 in 5.0 mi Calm Calm - N/A   Overcast
10:35 AM 75.2 °F 71.6 °F 89% 30.21 in 8.0 mi Calm Calm - N/A   Overcast
10:55 AM 75.2 °F 71.6 °F 89% 30.21 in 10.0 mi Calm Calm - N/A   Overcast
11:15 AM 78.8 °F 28.4 °F 16% 30.21 in 10.0 mi Calm Calm - N/A   Overcast
11:55 AM 82.4 °F 23.0 °F 11% 30.20 in 10.0 mi Calm Calm - N/A   Overcast
12:15 PM 84.2 °F 23.0 °F 11% 30.19 in 10.0 mi Calm Calm - N/A   Mostly Cloudy
12:35 PM 84.2 °F 24.8 °F 11% 30.19 in 10.0 mi Calm Calm - N/A   Mostly Cloudy
12:55 PM 87.8 °F 24.8 °F 10% 30.18 in 10.0 mi Calm Calm - N/A   Mostly Cloudy
1:15 PM 87.8 °F 24.8 °F 10% 30.18 in 10.0 mi Calm Calm - N/A   Overcast
1:35 PM 86.0 °F 24.8 °F 11% 30.18 in 10.0 mi Calm Calm - N/A   Overcast
1:55 PM 87.8 °F 24.8 °F 10% 30.18 in 10.0 mi ESE 4.6 mph - N/A   Mostly Cloudy
2:15 PM 89.6 °F 26.6 °F 10% 30.17 in 10.0 mi Calm Calm - N/A   Scattered Clouds
2:35 PM 87.8 °F 26.6 °F 11% 30.18 in 10.0 mi ESE 6.9 mph - N/A   Clear
2:55 PM 84.2 °F 23.0 °F 11% 30.17 in 10.0 mi East 12.7 mph - N/A   Scattered Clouds
3:15 PM 84.2 °F 23.0 °F 11% 30.18 in 10.0 mi East 12.7 mph 16.1 mph N/A Thunderstorm Partly Cloudy
3:35 PM 82.4 °F 21.2 °F 10% 30.18 in 10.0 mi ESE 11.5 mph - N/A Thunderstorm Mostly Cloudy
3:55 PM 78.8 °F 19.4 °F 11% 30.19 in 10.0 mi SE 10.4 mph 20.7 mph N/A Thunderstorm Thunderstorm
4:15 PM 75.2 °F 17.6 °F 11% 30.19 in 10.0 mi ESE 3.5 mph - N/A Thunderstorm Overcast
4:35 PM 75.2 °F 17.6 °F 11% 30.19 in 10.0 mi SSW 4.6 mph - N/A   Mostly Cloudy
4:55 PM 75.2 °F 17.6 °F 11% 30.18 in 10.0 mi Calm Calm - N/A   Mostly Cloudy
5:15 PM 77.0 °F 17.6 °F 11% 30.17 in 10.0 mi Calm Calm - N/A   Mostly Cloudy
5:35 PM 78.8 °F 19.4 °F 11% 30.17 in 10.0 mi Calm Calm - N/A   Partly Cloudy
5:55 PM 78.8 °F 19.4 °F 11% 30.17 in 10.0 mi Calm Calm - N/A   Clear
6:15 PM 78.8 °F 19.4 °F 11% 30.16 in 10.0 mi Calm Calm - N/A   Clear
6:35 PM 78.8 °F 19.4 °F 11% 30.15 in 10.0 mi Calm Calm - N/A   Clear
6:55 PM 78.8 °F 17.6 °F 10% 30.15 in 10.0 mi Calm Calm - N/A   Partly Cloudy
7:15 PM 77.0 °F 17.6 °F 11% 30.15 in 10.0 mi Calm Calm - N/A   Clear
7:35 PM 78.8 °F 17.6 °F 10% 30.16 in 10.0 mi Calm Calm - N/A   Clear
7:55 PM 77.0 °F 17.6 °F 11% 30.16 in 10.0 mi Calm Calm - N/A   Clear
8:15 PM 75.2 °F 17.6 °F 11% 30.18 in 10.0 mi Calm Calm - N/A   Clear
8:35 PM 75.2 °F 15.8 °F 11% 30.18 in 10.0 mi Calm Calm - N/A   Clear
8:55 PM 75.2 °F 15.8 °F 11% 30.18 in 10.0 mi Calm Calm - N/A   Clear
9:15 PM 75.2 °F 15.8 °F 11% 30.19 in 10.0 mi Calm Calm - N/A   Clear
9:35 PM 73.4 °F 15.8 °F 11% 30.18 in 10.0 mi Calm Calm - N/A   Clear
9:55 PM 73.4 °F 15.8 °F 11% 30.19 in 10.0 mi Calm Calm - N/A   Clear
10:15 PM 73.4 °F 15.8 °F 11% 30.19 in 10.0 mi Calm Calm - N/A   Clear
10:35 PM 73.4 °F 15.8 °F 11% 30.20 in 10.0 mi Calm Calm - N/A   Clear
10:55 PM 73.4 °F 15.8 °F 11% 30.21 in 10.0 mi Calm Calm - N/A   Scattered Clouds
11:15 PM 73.4 °F 15.8 °F 11% 30.21 in 10.0 mi Calm Calm - N/A   Mostly Cloudy
11:35 PM 73.4 °F 15.8 °F 11% 30.21 in 10.0 mi Calm Calm - N/A   Overcast
11:55 PM 73.4 °F 15.8 °F 11% 30.21 in 10.0 mi Calm Calm - N/A   Overcast